Boscobel, WI

5:36 AM CDT on March 25, 2017 (GMT -0500)
Boscobel

Weather History for KOVS - February, 2013

Change the Weather History Date:

Tuesday, February 19, 2013

  Actual Average (KPDC) Record (KPDC)
Temperature  
Mean Temperature 10 °F -  
Max Temperature 15 °F 36 °F 63 °F (2017)
Min Temperature 5 °F 18 °F -16 °F (1979)
Degree Days  
Heating Degree Days 54    
Moisture  
Dew Point 2 °F    
Average Humidity 68    
Maximum Humidity 79    
Minimum Humidity 56    
Precipitation  
Precipitation 0.00 in - - ()
Sea Level Pressure  
Sea Level Pressure 29.96 in    
Wind  
Wind Speed 12 mph (West)    
Max Wind Speed 18 mph    
Max Gust Speed 30 mph    
Visibility 6 miles    
Events Snow    
Averages and records for this station are not official NWS values.
T = Trace of Precipitation, MM = Missing Value Source: NWS Daily Summary

Daily Weather History Graph

Daily Weather History Graph

Search for Another Location

Airport or City:

Trip Planner

Search our weather history database for the weather conditions in past years. The results will help you decide how hot, cold, wet, or windy it might be!

Date:

Astronomy

Feb. 19, 2013 Rise Set
Actual Time 6:54 AM CST 5:39 PM CST
Civil Twilight 6:25 AM CST 6:08 PM CST
Nautical Twilight 5:52 AM CST 6:41 PM CST
Astronomical Twilight 5:19 AM CST 7:14 PM CST
Moon 12:06 PM CST (2/19) 2:31 AM CST (2/19)
Length of Visible Light 11h 43m
Length of Day
10h 45m
Waxing Gibbous, 67% of the Moon is Illuminated
Feb 19
Waxing Gibbous
Feb 25
Full
Mar 4
Last Quarter
Mar 11
New
Mar 19
First Quarter

Hourly Weather History & Observations

Time (CST) Temp. Windchill Dew Point Humidity Pressure Visibility Wind Dir Wind Speed Gust Speed Precip Events Conditions
12:53 AM 15.1 °F -0.1 °F 8.1 °F 74% 29.74 in 5.0 mi West 15.0 mph 23.0 mph 0.00 in Snow Light Snow
1:53 AM 14.0 °F 2.0 °F 6.1 °F 71% 29.76 in 7.0 mi West 9.2 mph 23.0 mph 0.00 in Snow Light Snow
2:12 AM 12.2 °F -1.0 °F 6.8 °F 79% 29.73 in 4.0 mi West 10.4 mph 23.0 mph 0.00 in Snow Light Snow
2:53 AM 12.9 °F -3.4 °F 6.1 °F 74% 29.78 in 3.0 mi WSW 16.1 mph - 0.00 in Snow Light Snow
3:12 AM 12.2 °F -0.2 °F 5.0 °F 73% 29.75 in 4.0 mi West 9.2 mph 18.4 mph 0.00 in Snow Light Snow
3:53 AM 12.0 °F -0.4 °F 5.0 °F 73% 29.80 in 4.0 mi West 9.2 mph 20.7 mph 0.00 in Snow Light Snow
4:12 AM 10.4 °F -5.4 °F 5.0 °F 79% 29.77 in 2.5 mi West 13.8 mph 19.6 mph 0.00 in Snow Light Snow
4:26 AM 10.4 °F -1.5 °F 5.0 °F 79% 29.78 in 1.8 mi West 8.1 mph 19.6 mph 0.00 in Snow Light Snow
4:53 AM 10.9 °F -3.4 °F 5.0 °F 77% 29.83 in 0.8 mi West 11.5 mph 19.6 mph 0.00 in Snow Light Snow
5:05 AM 10.4 °F -4.8 °F 5.0 °F 79% 29.79 in 1.0 mi West 12.7 mph 19.6 mph 0.00 in Snow Light Snow
5:14 AM 10.4 °F -3.3 °F 5.0 °F 79% 29.80 in 1.5 mi West 10.4 mph 21.9 mph 0.00 in Snow Light Snow
5:21 AM 10.4 °F -3.3 °F 3.2 °F 73% 29.80 in 3.0 mi West 10.4 mph 21.9 mph 0.00 in Snow Light Snow
5:31 AM 10.4 °F -1.5 °F 3.2 °F 73% 29.81 in 3.0 mi West 8.1 mph 20.7 mph 0.00 in Snow Light Snow
5:42 AM 10.4 °F -4.8 °F 3.2 °F 73% 29.82 in 2.5 mi WNW 12.7 mph - 0.00 in Snow Light Snow
5:53 AM 10.9 °F -2.6 °F 3.9 °F 73% 29.85 in 3.0 mi West 10.4 mph 21.9 mph 0.00 in Snow Light Snow
6:53 AM 9.0 °F -5.9 °F 1.0 °F 70% 29.88 in 10.0 mi West 11.5 mph - 0.00 in   Overcast
7:53 AM 9.0 °F -6.6 °F 1.0 °F 70% 29.92 in 2.5 mi West 12.7 mph 20.7 mph 0.00 in Snow Light Snow
8:09 AM 8.6 °F -8.3 °F 1.4 °F 73% 29.88 in 4.0 mi West 15.0 mph 23.0 mph 0.00 in Snow Light Snow
8:16 AM 8.6 °F -7.7 °F 1.4 °F 73% 29.89 in 3.0 mi WNW 13.8 mph 29.9 mph 0.00 in Snow Light Snow
8:34 AM 8.6 °F -7.0 °F 1.4 °F 73% 29.90 in 2.0 mi West 12.7 mph 23.0 mph 0.00 in Snow Light Snow
8:53 AM 9.0 °F -4.2 °F 1.0 °F 70% 29.95 in 3.0 mi WNW 9.2 mph 20.7 mph 0.00 in Snow Light Snow
9:53 AM 10.0 °F -5.9 °F 1.0 °F 67% 29.98 in 9.0 mi West 13.8 mph 21.9 mph 0.00 in   Overcast
10:53 AM 10.9 °F -6.5 °F 1.0 °F 64% 29.99 in 8.0 mi West 17.3 mph 26.5 mph N/A   Overcast
11:41 AM 12.2 °F -3.1 °F 1.4 °F 62% 29.96 in 10.0 mi West 13.8 mph 25.3 mph 0.00 in   Overcast
12:53 PM 14.0 °F -2.0 °F 1.0 °F 56% 30.03 in 10.0 mi West 16.1 mph 24.2 mph 0.00 in   Mostly Cloudy
1:36 PM 12.2 °F -2.5 °F 1.4 °F 62% 30.00 in 10.0 mi WNW 12.7 mph 24.2 mph N/A   Mostly Cloudy
1:53 PM 14.0 °F -1.4 °F 1.9 °F 59% 30.05 in 10.0 mi WNW 15.0 mph 29.9 mph N/A   Mostly Cloudy
2:53 PM 15.1 °F 1.1 °F 1.9 °F 56% 30.08 in 10.0 mi WNW 12.7 mph 21.9 mph N/A   Overcast
3:34 PM 14.0 °F -1.4 °F 1.4 °F 57% 30.06 in 10.0 mi WNW 15.0 mph 23.0 mph N/A   Overcast
3:53 PM 14.0 °F 0.5 °F 1.0 °F 56% 30.12 in 10.0 mi WNW 11.5 mph 21.9 mph N/A   Mostly Cloudy
4:04 PM 12.2 °F 0.7 °F 1.4 °F 62% 30.07 in 10.0 mi WNW 8.1 mph 17.3 mph N/A   Partly Cloudy
4:53 PM 12.0 °F -5.6 °F -0.0 °F 59% 30.15 in 10.0 mi WNW 18.4 mph 27.6 mph N/A   Scattered Clouds
6:53 PM 9.0 °F -2.2 °F -2.0 °F 61% 30.22 in 10.0 mi West 6.9 mph - N/A   Clear
7:53 PM 8.1 °F -3.2 °F -2.9 °F 61% 30.25 in 10.0 mi WNW 6.9 mph - N/A   Clear
8:53 PM 7.0 °F -1.7 °F -2.9 °F 64% 30.27 in 10.0 mi Variable 4.6 mph - N/A   Clear
9:53 PM 7.0 °F 0.1 °F -4.0 °F 61% 30.29 in 10.0 mi Variable 3.5 mph - N/A   Clear
10:53 PM 6.1 °F -2.8 °F -4.0 °F 63% 30.32 in 10.0 mi West 4.6 mph - N/A   Clear
11:53 PM 5.0 °F -4.1 °F -4.0 °F 66% 30.34 in 10.0 mi West 4.6 mph - N/A   Clear